Torna al catalogo

AYAME 2 DEB

AttivoHEO
NORAD 28999·DEBRIS·🇯🇵 Japan

Lanciato Feb 22, 1980 da Tanegashima Space Center

Loading…

Prossimi Passaggi (prossime 24 ore)

TLE

AggiornatoSource: Space-Track

Epoca: Sep 13, 2026, 11:33 UTC

1 28999U 80018D   26256.48157340 -.00000156  00000-0  00000+0 0  9999
2 28999   9.4131  28.5871 4331194 316.1877  16.6133  1.75811653134214

Traccia AYAME 2 DEB in tempo reale con AllMySat

Download on the App Store